Flag for Afghanistan Weather past 2 weeks in Ghazni, Afghanistan

Now
64 °F

Fog.


Feels Like: 64 °F
Forecast: 41 / 59 °F
Wind: 7 mph from North

Location: Peshawar Airport

Current Time: Mar 31, 2015 at 5:16:36 PM

Latest Report: Mar 31, 2015 at 4:30 PM


Visibility: 2 mi

Pressure: 29.92 "Hg

Humidity: 83%

Dew point: 59 °F

Location of GhazniLocation

Historic Weather in Ghazni — Graph

°F

Ghazni temperature yesterday

Maximum temperature yesterday: 77 °F (at 12:30 PM)
Minimum temperature yesterday: 59 °F (at 2:30 AM)
Average temperature yesterday: 68 °F

Past Weeks' High & Low Weather Summary

 TemperatureHumidityPressure
High90 °F (Mar 23, 3:30 PM)100% (Mar 29, 5:30 AM)32.43 "Hg (Mar 29, 5:30 AM)
Low52 °F (Mar 18, 5:30 AM)27% (Mar 27, 2:30 PM)29.77 "Hg (Mar 24, 1:30 PM)
Average69 °F61%29.99 "Hg
* Reported Mar 16 4:30 PM — Mar 31 4:30 PM, Ghazni, Weather by CustomWeather, © 2015

Note: Actual official high and low records may vary slightly from our data, if they occured in-between our weather recording intervals... More about our weather records

Advertising

Ghazni weather history for previous 24 hours

 ConditionsComfort  
Time TempWeatherWind HumidityBarometerVisibility
4:30 PM
Tue, Mar 31
64 °FFog.7 mph83%29.92 "Hg2 mi
3:30 PM64 °FThunderstorms. More clouds than sun.7 mph83%29.92 "Hg2 mi
2:30 PM66 °FThunderstorms. More clouds than sun.12 mph83%29.92 "Hg2 mi
1:30 PM68 °FLight rain. Broken clouds.12 mph69%29.95 "Hg2 mi
12:30 PM72 °FBroken clouds.12 mph65%29.95 "Hg2 mi
11:30 AM72 °FBroken clouds.5 mph65%29.98 "Hg2 mi
10:30 AM70 °FMild.7 mph64%29.98 "HgN/A
9:30 AM70 °FBroken clouds.No wind64%29.98 "Hg2 mi
8:30 AM68 °FPartly sunny.7 mph69%29.98 "Hg2 mi
7:30 AM66 °FBroken clouds.5 mph73%29.95 "Hg2 mi
6:30 AM64 °FScattered clouds.5 mph68%29.92 "Hg2 mi
5:30 AM64 °FPassing clouds.5 mph68%29.92 "Hg2 mi
4:30 AM63 °FPassing clouds.5 mph73%29.89 "Hg2 mi
3:30 AM63 °FHaze.5 mph59%29.89 "Hg2 mi
2:30 AM64 °FHaze.5 mph64%29.89 "Hg2 mi
1:30 AM64 °FPassing clouds.5 mph64%29.89 "Hg2 mi
12:30 AM64 °FPassing clouds.5 mph68%29.89 "Hg2 mi
11:30 PM
Mon, Mar 30
66 °FPassing clouds.7 mph68%29.92 "Hg2 mi
10:30 PM66 °FPassing clouds.7 mph60%29.89 "Hg2 mi
9:30 PM68 °FPassing clouds.5 mph64%29.89 "Hg2 mi
8:30 PM70 °FPassing clouds.5 mph60%29.89 "Hg2 mi
7:30 PM72 °FPassing clouds.5 mph57%29.86 "Hg3 mi
6:30 PM73 °FPassing clouds.5 mph57%29.86 "Hg3 mi
5:30 PM75 °FBroken clouds.5 mph50%29.83 "Hg3 mi
Weather by CustomWeather, © 2015

See weather overviewHow to use our weather pages